sat.trackr.live / text

‹ back to catalog

ICEYE-X54

NORAD 64570 · 2025-135AU

PAYLOAD ACTIVE UNKNOWN

§ Identity

Operator
Country
NETH
Launch date
2025-06-23
Launch site
AFWTR
Launch vehicle
Mass (kg)
RCS (m²)

External: N2YO · Heavens-Above · Gunter

§ Orbital elements

Epoch: 2026-09-21T22:56:27.816864Z

Period
96.32 min
Inclination
97.7802°
Eccentricity
0.0002626
Mean motion
14.94940199 rev/d
Perigee alt
580.7 km
Apogee alt
584.4 km
Semi-major
6,960.7 km
B*
1.4286e-4
RAAN
18.5032°
Arg perigee
28.0467°
Mean anomaly
332.0894°
Rev number
6,835

§ Raw data

ICEYE-X541 64570U 25135AU  26264.95587751  .00001502  00000+0  14286-3 0  99962 64570  97.7802  18.5032 0002626  28.0467 332.0894 14.94940199 68350

JSON: /api/v1/satellites/64570 · /tle

For live sub-satellite position, see the globe view (requires WebGL).

§ Visibility from observer

Set your observer location to see the next 7 days of passes ≥ 10°. The values pass through the URL so the page stays shareable.

No JS? Fill the form by hand. The geolocation button needs JavaScript.

§ Radio — SatNOGS DB

ModeDescriptionDownlinkUplink
FM S-band telemetry 2.264 GHz

1 transmitter · refreshed weekly from db.satnogs.org